Time,TemperatureF,DewpointF,PressureIn,WindDirection,WindDirectionDegrees,WindSpeedMPH,WindSpeedGustMPH,Humidity,HourlyPrecipIn,Conditions,Clouds,dailyrainin,SoftwareType,DateUTC
2013-03-17 08:54:00,55.2,53.8,30.10,SE,131,0.5,2.3,95,0.00,CLR,,0.00,WeatherDisplay:10.37,2013-03-17 12:54:00,
2013-03-17 08:59:00,56.1,54.1,30.10,ESE,105,0.9,2.3,93,0.00,CLR,,0.00,WeatherDisplay:10.37,2013-03-17 12:59:00,
2013-03-17 09:04:00,56.7,54.4,30.10,ESE,111,0.6,1.1,92,0.00,CLR,,0.00,WeatherDisplay:10.37,2013-03-17 13:04:00,
2013-03-17 09:09:00,57.2,54.9,30.10,SE,124,0.6,1.1,92,0.00,CLR,,0.00,WeatherDisplay:10.37,2013-03-17 13:09:00,
2013-03-17 09:14:00,57.4,54.8,30.10,ENE,57,0.0,1.1,91,0.00,CLR,,0.00,WeatherDisplay:10.37,2013-03-17 13:14:00,
2013-03-17 09:19:00,57.8,55.2,30.10,ESE,103,0.9,3.0,91,0.00,CLR,,0.00,WeatherDisplay:10.37,2013-03-17 13:19:00,
2013-03-17 09:24:00,58.8,55.9,30.10,ESE,118,1.2,3.5,90,0.00,CLR,,0.00,WeatherDisplay:10.37,2013-03-17 13:24:00,
2013-03-17 09:29:00,60.1,56.5,30.10,ESE,110,2.9,3.5,88,0.00,CLR,,0.00,WeatherDisplay:10.37,2013-03-17 13:29:00,
2013-03-17 09:34:00,60.7,56.5,30.09,East,91,1.9,5.8,86,0.00,CLR,,0.00,WeatherDisplay:10.37,2013-03-17 13:34:00,
2013-03-17 09:39:00,60.9,56.7,30.10,SE,127,0.4,2.3,86,0.00,CLR,,0.00,WeatherDisplay:10.37,2013-03-17 13:39:00,
2013-03-17 09:44:00,61.4,56.8,30.10,SE,146,1.6,3.5,85,0.00,CLR,,0.00,WeatherDisplay:10.37,2013-03-17 13:44:00,
2013-03-17 09:49:00,61.9,57.0,30.11,ESE,111,1.9,3.5,84,0.00,CLR,,0.00,WeatherDisplay:10.37,2013-03-17 13:49:00,
2013-03-17 09:54:00,62.4,56.8,30.11,East,94,2.5,3.5,82,0.00,CLR,,0.00,WeatherDisplay:10.37,2013-03-17 13:54:00,
2013-03-17 09:59:00,63.1,57.5,30.11,ESE,121,1.1,3.0,82,0.00,CLR,,0.00,WeatherDisplay:10.37,2013-03-17 13:59:00,
2013-03-17 10:04:00,63.8,57.5,30.10,SE,124,1.9,5.0,80,0.00,CLR,,0.00,WeatherDisplay:10.37,2013-03-17 14:04:00,
2013-03-17 10:09:00,64.6,57.9,30.11,ESE,105,2.8,3.5,79,0.00,CLR,,0.00,WeatherDisplay:10.37,2013-03-17 14:09:00,
2013-03-17 10:14:00,65.3,57.9,30.11,SE,132,3.2,3.5,77,0.00,CLR,,0.00,WeatherDisplay:10.37,2013-03-17 14:14:00,
2013-03-17 10:19:00,65.9,58.1,30.11,East,91,2.4,6.9,76,0.00,CLR,,0.00,WeatherDisplay:10.37,2013-03-17 14:19:00,
2013-03-17 10:24:00,66.7,57.8,30.11,SE,125,2.2,6.9,73,0.00,CLR,,0.00,WeatherDisplay:10.37,2013-03-17 14:24:00,
2013-03-17 10:29:00,67.5,57.8,30.11,SSE,161,2.1,10.4,71,0.00,CLR,,0.00,WeatherDisplay:10.37,2013-03-17 14:29:00,
2013-03-17 10:34:00,67.7,57.6,30.11,ENE,70,2.3,5.8,70,0.00,CLR,,0.00,WeatherDisplay:10.37,2013-03-17 14:34:00,
2013-03-17 10:39:00,68.4,57.8,30.11,SSE,148,2.5,6.9,69,0.00,CLR,,0.00,WeatherDisplay:10.37,2013-03-17 14:39:00,
2013-03-17 10:44:00,68.8,57.4,30.11,East,96,2.9,4.0,67,0.00,CLR,,0.00,WeatherDisplay:10.37,2013-03-17 14:44:00,
2013-03-17 10:49:00,68.8,57.4,30.12,SE,134,3.4,4.6,67,0.00,CLR,,0.00,WeatherDisplay:10.37,2013-03-17 14:49:00,
2013-03-17 10:54:00,68.9,57.5,30.12,SE,131,1.9,6.9,67,0.00,CLR,,0.00,WeatherDisplay:10.37,2013-03-17 14:54:00,
2013-03-17 10:59:00,69.0,57.2,30.11,SE,146,4.1,9.2,66,0.00,CLR,,0.00,WeatherDisplay:10.37,2013-03-17 14:59:00,
2013-03-17 11:04:00,69.0,57.2,30.11,South,170,3.3,4.6,66,0.00,CLR,,0.00,WeatherDisplay:10.37,2013-03-17 15:04:00,
2013-03-17 11:09:00,69.0,57.2,30.11,East,89,2.8,4.6,66,0.00,CLR,,0.00,WeatherDisplay:10.37,2013-03-17 15:09:00,
2013-03-17 11:14:00,69.2,57.4,30.11,East,79,2.9,4.0,66,0.00,CLR,,0.00,WeatherDisplay:10.37,2013-03-17 15:14:00,
2013-03-17 11:19:00,69.4,57.5,30.11,ESE,118,2.2,4.0,66,0.00,CLR,,0.00,WeatherDisplay:10.37,2013-03-17 15:19:00,
2013-03-17 11:24:00,70.0,57.7,30.11,ESE,121,2.4,4.6,65,0.00,CLR,,0.00,WeatherDisplay:10.37,2013-03-17 15:24:00,
2013-03-17 11:29:00,70.9,57.7,30.11,SE,125,4.0,5.8,63,0.00,CLR,,0.00,WeatherDisplay:10.37,2013-03-17 15:29:00,
2013-03-17 11:34:00,71.3,57.6,30.11,ESE,112,5.0,5.8,62,0.00,CLR,,0.00,WeatherDisplay:10.37,2013-03-17 15:34:00,
2013-03-17 11:39:00,71.8,58.5,30.11,ESE,105,4.2,6.0,63,0.00,CLR,,0.00,WeatherDisplay:10.37,2013-03-17 15:39:00,
2013-03-17 11:44:00,72.1,57.9,30.11,ESE,119,6.0,8.1,61,0.00,CLR,,0.00,WeatherDisplay:10.37,2013-03-17 15:44:00,
2013-03-17 11:49:00,71.8,57.6,30.11,SE,144,2.1,4.0,61,0.00,CLR,,0.00,WeatherDisplay:10.37,2013-03-17 15:49:00,
2013-03-17 11:54:00,71.8,58.1,30.10,East,80,2.1,4.0,62,0.00,CLR,,0.00,WeatherDisplay:10.37,2013-03-17 15:54:00,
2013-03-17 11:59:00,72.3,58.5,30.10,SE,143,1.7,3.5,62,0.00,CLR,,0.00,WeatherDisplay:10.37,2013-03-17 15:59:00,
2013-03-17 12:04:00,72.3,58.1,30.10,SE,143,3.1,4.0,61,0.00,CLR,,0.00,WeatherDisplay:10.37,2013-03-17 16:04:00,
2013-03-17 12:09:00,72.7,58.5,30.10,ESE,105,3.9,5.8,61,0.00,CLR,,0.00,WeatherDisplay:10.37,2013-03-17 16:09:00,
2013-03-17 12:14:00,73.3,58.6,30.10,SE,131,3.5,6.0,60,0.00,CLR,,0.00,WeatherDisplay:10.37,2013-03-17 16:14:00,
2013-03-17 12:19:00,73.4,58.7,30.10,SSE,150,2.4,4.6,60,0.00,CLR,,0.00,WeatherDisplay:10.37,2013-03-17 16:19:00,
2013-03-17 12:24:00,73.5,58.8,30.10,SSW,210,2.2,4.6,60,0.00,CLR,,0.00,WeatherDisplay:10.37,2013-03-17 16:24:00,
2013-03-17 12:29:00,73.5,58.8,30.10,South,181,6.0,11.5,60,0.00,CLR,,0.00,WeatherDisplay:10.37,2013-03-17 16:29:00,
2013-03-17 12:34:00,73.4,58.7,30.10,SE,131,5.0,11.5,60,0.00,CLR,,0.00,WeatherDisplay:10.37,2013-03-17 16:34:00,
2013-03-17 12:39:00,73.5,58.8,30.09,SSW,212,4.0,8.0,60,0.00,CLR,,0.00,WeatherDisplay:10.37,2013-03-17 16:39:00,
2013-03-17 12:44:00,74.0,58.8,30.09,WSW,239,4.3,10.4,59,0.00,CLR,,0.00,WeatherDisplay:10.37,2013-03-17 16:44:00,
2013-03-17 12:49:00,74.1,59.3,30.09,SSE,150,4.5,8.0,60,0.00,CLR,,0.00,WeatherDisplay:10.37,2013-03-17 16:49:00,
2013-03-17 12:54:00,73.6,58.9,30.09,ESE,123,6.7,10.0,60,0.00,CLR,,0.00,WeatherDisplay:10.37,2013-03-17 16:54:00,
2013-03-17 12:59:00,73.9,59.1,30.09,SSW,195,7.9,10.4,60,0.00,CLR,,0.00,WeatherDisplay:10.37,2013-03-17 16:59:00,
2013-03-17 13:04:00,74.3,59.0,30.09,SSW,193,5.8,10.4,59,0.00,CLR,,0.00,WeatherDisplay:10.37,2013-03-17 17:04:00,
2013-03-17 13:09:00,74.4,60.1,30.09,SW,217,3.6,7.0,61,0.00,CLR,,0.00,WeatherDisplay:10.37,2013-03-17 17:09:00,
2013-03-17 13:14:00,74.4,59.1,30.09,SE,143,5.6,12.7,59,0.00,CLR,,0.00,WeatherDisplay:10.37,2013-03-17 17:14:00,
2013-03-17 13:19:00,74.5,59.7,30.09,South,180,5.1,8.1,60,0.00,CLR,,0.00,WeatherDisplay:10.37,2013-03-17 17:19:00,
2013-03-17 13:24:00,75.1,59.8,30.08,SSE,167,4.7,10.4,59,0.00,CLR,,0.00,WeatherDisplay:10.37,2013-03-17 17:24:00,
2013-03-17 13:29:00,75.1,59.8,30.08,SSE,168,4.3,13.8,59,0.00,CLR,,0.00,WeatherDisplay:10.37,2013-03-17 17:29:00,
2013-03-17 13:34:00,75.3,60.0,30.08,South,183,5.5,13.0,59,0.00,CLR,,0.00,WeatherDisplay:10.37,2013-03-17 17:34:00,
2013-03-17 13:39:00,75.1,59.8,30.08,South,169,9.6,13.8,59,0.00,CLR,,0.00,WeatherDisplay:10.37,2013-03-17 17:39:00,
2013-03-17 13:44:00,75.2,59.9,30.08,South,177,4.1,10.4,59,0.00,CLR,,0.00,WeatherDisplay:10.37,2013-03-17 17:44:00,
2013-03-17 13:49:00,75.7,59.4,30.08,SSW,198,4.6,9.2,57,0.00,CLR,,0.00,WeatherDisplay:10.37,2013-03-17 17:49:00,
2013-03-17 13:54:00,75.3,59.5,30.07,SSW,211,5.8,10.4,58,0.00,CLR,,0.00,WeatherDisplay:10.37,2013-03-17 17:54:00,
2013-03-17 13:59:00,74.9,60.1,30.07,SSW,198,5.3,6.9,60,0.00,CLR,,0.00,WeatherDisplay:10.37,2013-03-17 17:59:00,
2013-03-17 14:04:00,74.9,60.1,30.07,SW,214,5.6,11.5,60,0.00,CLR,,0.00,WeatherDisplay:10.37,2013-03-17 18:04:00,
2013-03-17 14:09:00,74.8,60.4,30.07,South,171,3.4,10.4,61,0.00,CLR,,0.00,WeatherDisplay:10.37,2013-03-17 18:09:00,
2013-03-17 14:14:00,74.6,59.8,30.07,SW,214,6.6,9.2,60,0.00,CLR,,0.00,WeatherDisplay:10.37,2013-03-17 18:14:00,
2013-03-17 14:19:00,74.1,60.2,30.07,SSW,207,5.7,9.2,62,0.00,CLR,,0.00,WeatherDisplay:10.37,2013-03-17 18:19:00,
2013-03-17 14:24:00,73.7,59.9,30.06,South,181,8.1,15.0,62,0.00,CLR,,0.00,WeatherDisplay:10.37,2013-03-17 18:24:00,
2013-03-17 14:29:00,73.3,60.4,30.06,South,176,7.5,12.7,64,0.00,CLR,,0.00,WeatherDisplay:10.37,2013-03-17 18:29:00,
2013-03-17 14:34:00,73.3,60.4,30.06,SSE,163,6.5,13.8,64,0.00,CLR,,0.00,WeatherDisplay:10.37,2013-03-17 18:34:00,
2013-03-17 14:39:00,73.2,60.7,30.06,SSW,212,5.7,10.4,65,0.00,CLR,,0.00,WeatherDisplay:10.37,2013-03-17 18:39:00,
2013-03-17 14:44:00,73.1,60.2,30.06,South,173,9.8,12.0,64,0.00,CLR,,0.00,WeatherDisplay:10.37,2013-03-17 18:44:00,
2013-03-17 14:49:00,73.0,60.5,30.06,WSW,243,6.6,12.7,65,0.00,CLR,,0.00,WeatherDisplay:10.37,2013-03-17 18:49:00,
2013-03-17 18:44:00,70.4,58.5,30.00,South,172,2.1,9.2,66,0.00,CLR,,0.01,WeatherDisplay:10.37,2013-03-17 22:44:00,
2013-03-17 18:49:00,70.4,59.3,30.00,SSW,197,1.4,3.5,68,0.00,CLR,,0.01,WeatherDisplay:10.37,2013-03-17 22:49:00,
2013-03-17 18:54:00,70.1,59.5,30.00,South,173,3.8,5.8,69,0.00,CLR,,0.01,WeatherDisplay:10.37,2013-03-17 22:54:00,
2013-03-17 18:59:00,69.8,59.6,30.00,South,180,2.8,3.5,70,0.00,CLR,,0.01,WeatherDisplay:10.37,2013-03-17 22:59:00,
2013-03-17 19:04:00,69.6,59.8,30.00,South,169,3.2,4.6,71,0.00,CLR,,0.01,WeatherDisplay:10.37,2013-03-17 23:04:00,
2013-03-17 19:09:00,69.5,60.1,30.00,SE,129,2.1,3.5,72,0.00,CLR,,0.01,WeatherDisplay:10.37,2013-03-17 23:09:00,
2013-03-17 19:14:00,69.3,59.5,30.00,SSW,196,1.8,3.5,71,0.00,CLR,,0.01,WeatherDisplay:10.37,2013-03-17 23:14:00,
2013-03-17 19:19:00,69.2,59.4,30.00,South,188,3.5,6.9,71,0.00,CLR,,0.01,WeatherDisplay:10.37,2013-03-17 23:19:00,
2013-03-17 19:24:00,69.1,59.7,30.00,SSE,165,4.4,6.9,72,0.00,CLR,,0.01,WeatherDisplay:10.37,2013-03-17 23:24:00,
2013-03-17 19:29:00,69.0,59.6,30.00,SSE,162,3.1,6.0,72,0.00,CLR,,0.01,WeatherDisplay:10.37,2013-03-17 23:29:00,
2013-03-17 19:34:00,68.9,59.9,30.00,SSW,207,2.0,4.6,73,0.00,CLR,,0.01,WeatherDisplay:10.37,2013-03-17 23:34:00,
2013-03-17 19:39:00,68.7,60.1,30.00,SSW,209,2.6,5.0,74,0.00,CLR,,0.01,WeatherDisplay:10.37,2013-03-17 23:39:00,
2013-03-17 19:44:00,68.5,59.9,29.99,SE,141,3.6,5.8,74,0.00,CLR,,0.01,WeatherDisplay:10.37,2013-03-17 23:44:00,
2013-03-17 19:49:00,68.4,60.2,29.99,ESE,115,1.7,3.5,75,0.00,CLR,,0.01,WeatherDisplay:10.37,2013-03-17 23:49:00,
2013-03-17 19:54:00,68.3,60.1,29.99,South,183,3.7,4.6,75,0.00,CLR,,0.01,WeatherDisplay:10.37,2013-03-17 23:54:00,
2013-03-17 19:59:00,68.2,60.0,30.00,South,181,2.5,5.8,75,0.00,CLR,,0.01,WeatherDisplay:10.37,2013-03-17 23:59:00,
2013-03-17 20:04:00,68.1,59.9,30.00,South,179,2.7,4.6,75,0.00,CLR,,0.01,WeatherDisplay:10.37,2013-03-18 00:04:00,
2013-03-17 20:09:00,68.0,60.2,30.00,SSE,166,2.8,3.5,76,0.00,CLR,,0.01,WeatherDisplay:10.37,2013-03-18 00:09:00,
2013-03-17 20:14:00,68.0,60.2,30.00,SSW,202,1.7,3.5,76,0.00,CLR,,0.01,WeatherDisplay:10.37,2013-03-18 00:14:00,
2013-03-17 20:19:00,67.9,60.1,30.00,SSE,156,2.9,4.6,76,0.00,CLR,,0.01,WeatherDisplay:10.37,2013-03-18 00:19:00,
2013-03-17 20:24:00,67.9,60.1,30.01,SSE,158,2.6,4.6,76,0.00,CLR,,0.01,WeatherDisplay:10.37,2013-03-18 00:24:00,
2013-03-17 20:29:00,67.9,59.7,30.01,SSE,153,3.2,5.8,75,0.00,CLR,,0.01,WeatherDisplay:10.37,2013-03-18 00:29:00,
2013-03-17 20:34:00,67.9,59.7,30.01,South,173,2.6,3.5,75,0.00,CLR,,0.01,WeatherDisplay:10.37,2013-03-18 00:34:00,
2013-03-17 20:40:00,67.9,59.7,30.00,South,181,2.5,3.5,75,0.00,CLR,,0.01,WeatherDisplay:10.37,2013-03-18 00:40:00,
2013-03-17 20:45:00,68.0,59.8,30.01,SSW,200,1.9,5.8,75,0.00,CLR,,0.01,WeatherDisplay:10.37,2013-03-18 00:45:00,
2013-03-17 20:50:00,68.0,59.8,30.01,ESE,106,0.8,3.0,75,0.00,CLR,,0.01,WeatherDisplay:10.37,2013-03-18 00:50:00,
2013-03-17 20:55:00,67.9,59.7,30.01,South,188,1.4,3.5,75,0.00,CLR,,0.01,WeatherDisplay:10.37,2013-03-18 00:55:00,
2013-03-17 21:00:00,67.8,59.6,30.00,SSE,150,1.8,3.5,75,0.00,CLR,,0.01,WeatherDisplay:10.37,2013-03-18 01:00:00,
2013-03-17 21:05:00,67.8,60.0,30.01,SSW,207,1.8,4.6,76,0.00,CLR,,0.01,WeatherDisplay:10.37,2013-03-18 01:05:00,
2013-03-17 21:10:00,67.8,60.0,30.01,SE,127,2.4,3.5,76,0.00,CLR,,0.01,WeatherDisplay:10.37,2013-03-18 01:10:00,
2013-03-17 21:15:00,67.8,60.0,30.00,SSE,155,1.5,2.3,76,0.00,CLR,,0.01,WeatherDisplay:10.37,2013-03-18 01:15:00,
2013-03-17 21:20:00,67.7,59.9,30.00,SSE,155,2.1,2.3,76,0.00,CLR,,0.01,WeatherDisplay:10.37,2013-03-18 01:20:00,
2013-03-17 21:25:00,67.7,59.9,30.01,South,189,2.2,4.6,76,0.00,CLR,,0.01,WeatherDisplay:10.37,2013-03-18 01:25:00,
2013-03-17 21:30:00,67.6,59.8,30.01,South,184,1.8,3.5,76,0.00,CLR,,0.01,WeatherDisplay:10.37,2013-03-18 01:30:00,
2013-03-17 21:35:00,67.6,59.8,30.01,SSW,195,0.9,3.5,76,0.00,CLR,,0.01,WeatherDisplay:10.37,2013-03-18 01:35:00,
2013-03-17 21:40:00,67.6,59.8,30.01,SSE,156,0.5,3.5,76,0.00,CLR,,0.01,WeatherDisplay:10.37,2013-03-18 01:40:00,
2013-03-17 21:45:00,67.6,59.8,30.02,South,169,0.0,0.0,76,0.00,CLR,,0.01,WeatherDisplay:10.37,2013-03-18 01:45:00,
2013-03-17 21:50:00,67.5,59.7,30.01,South,179,1.2,1.2,76,0.00,CLR,,0.01,WeatherDisplay:10.37,2013-03-18 01:50:00,
2013-03-17 21:55:00,67.5,59.7,30.01,South,188,0.4,1.1,76,0.00,CLR,,0.01,WeatherDisplay:10.37,2013-03-18 01:55:00,
2013-03-17 22:00:00,67.4,59.9,30.02,South,188,1.3,1.3,77,0.00,CLR,,0.01,WeatherDisplay:10.37,2013-03-18 02:00:00,
2013-03-17 22:05:00,67.4,59.9,30.02,SW,226,0.0,0.0,77,0.00,CLR,,0.01,WeatherDisplay:10.37,2013-03-18 02:05:00,
2013-03-17 22:10:00,67.3,59.8,30.02,SSW,197,0.0,0.0,77,0.00,CLR,,0.01,WeatherDisplay:10.37,2013-03-18 02:10:00,
2013-03-17 22:15:00,67.2,60.1,30.02,SE,136,0.5,1.1,78,0.00,CLR,,0.01,WeatherDisplay:10.37,2013-03-18 02:15:00,
2013-03-17 22:20:00,67.1,60.0,30.02,SSE,156,0.1,1.1,78,0.00,CLR,,0.01,WeatherDisplay:10.37,2013-03-18 02:20:00,
2013-03-17 22:25:00,67.1,60.0,30.02,SSE,166,0.0,0.0,78,0.00,CLR,,0.01,WeatherDisplay:10.37,2013-03-18 02:25:00,
2013-03-17 22:30:00,66.9,59.8,30.02,SSE,166,0.0,0.0,78,0.00,CLR,,0.01,WeatherDisplay:10.37,2013-03-18 02:30:00,
2013-03-17 22:35:00,66.7,60.0,30.02,SSE,166,0.0,0.0,79,0.00,CLR,,0.01,WeatherDisplay:10.37,2013-03-18 02:35:00,
2013-03-17 22:40:00,66.5,59.8,30.02,SSE,166,0.0,0.0,79,0.00,CLR,,0.01,WeatherDisplay:10.37,2013-03-18 02:40:00,
2013-03-17 22:45:00,66.4,60.4,30.02,SSE,155,0.0,0.0,81,0.00,CLR,,0.01,WeatherDisplay:10.37,2013-03-18 02:45:00,
2013-03-17 22:50:00,66.0,60.0,30.02,ESE,115,0.0,0.0,81,0.00,CLR,,0.01,WeatherDisplay:10.37,2013-03-18 02:50:00,
2013-03-17 22:55:00,65.8,60.2,30.02,ESE,120,1.0,0.0,82,0.00,CLR,,0.01,WeatherDisplay:10.37,2013-03-18 02:55:00,
2013-03-17 23:00:00,65.8,60.2,30.02,SE,146,0.9,0.0,82,0.00,CLR,,0.01,WeatherDisplay:10.37,2013-03-18 03:00:00,
2013-03-17 23:05:00,65.9,59.9,30.02,SE,137,1.1,2.3,81,0.00,CLR,,0.01,WeatherDisplay:10.37,2013-03-18 03:05:00,
2013-03-17 23:10:00,66.0,60.0,30.01,SE,130,0.0,2.3,81,0.00,CLR,,0.01,WeatherDisplay:10.37,2013-03-18 03:10:00,
2013-03-17 23:15:00,66.2,59.8,30.02,SSE,151,0.5,2.3,80,0.00,CLR,,0.01,WeatherDisplay:10.37,2013-03-18 03:15:00,
2013-03-17 23:20:00,66.2,59.8,30.02,SSE,151,0.0,0.0,80,0.00,CLR,,0.01,WeatherDisplay:10.37,2013-03-18 03:20:00,
2013-03-17 23:25:00,66.1,59.7,30.02,SSE,151,0.0,0.0,80,0.00,CLR,,0.01,WeatherDisplay:10.37,2013-03-18 03:25:00,
2013-03-17 23:30:00,65.9,59.6,30.02,SSE,150,0.0,0.0,80,0.00,CLR,,0.01,WeatherDisplay:10.37,2013-03-18 03:30:00,
2013-03-17 23:35:00,65.8,60.2,30.03,SSE,150,0.0,0.0,82,0.00,CLR,,0.01,WeatherDisplay:10.37,2013-03-18 03:35:00,
2013-03-17 23:40:00,65.6,60.0,30.02,SE,132,0.1,0.0,82,0.00,CLR,,0.01,WeatherDisplay:10.37,2013-03-18 03:40:00,
2013-03-17 23:45:00,65.5,59.2,30.02,SE,124,0.2,1.1,80,0.00,CLR,,0.01,WeatherDisplay:10.37,2013-03-18 03:45:00,
2013-03-17 23:50:00,65.4,58.7,30.02,ESE,116,0.4,2.3,79,0.00,CLR,,0.01,WeatherDisplay:10.37,2013-03-18 03:50:00,
2013-03-17 23:55:00,65.5,58.8,30.02,ESE,122,0.0,1.1,79,0.00,CLR,,0.01,WeatherDisplay:10.37,2013-03-18 03:55:00,